Weather History for KFOE - October, 2013

Change the Weather History Date:

Friday, October 4, 2013

  Actual Average Record
Temperature  
Mean Temperature 76 °F -  
Max Temperature 90 °F 74 °F 93 °F (1963)
Min Temperature 60 °F 47 °F 30 °F (1999)
Cooling Degree Days 12    
Growing Degree Days 26 (Base 50)    
Moisture  
Dew Point 64 °F    
Average Humidity 71    
Maximum Humidity 90    
Minimum Humidity 40    
Precipitation  
Precipitation 0.29 in - - ()
Sea Level Pressure  
Sea Level Pressure 29.76 in    
Wind  
Wind Speed 17 mph (South)    
Max Wind Speed 25 mph    
Max Gust Speed 38 mph    
Visibility 10 miles    
Events Rain , Thunderstorm    
Averages and records for this station are not official NWS values.
T = Trace of Precipitation, MM = Missing Value Source: NWS Daily Summary

Daily Weather History Graph

Daily Weather History Graph

Search for Another Location

Airport or City:

Trip Planner

Search our weather history database for the weather conditions in past years. The results will help you decide how hot, cold, wet, or windy it might be!

Date:

Astronomy

Oct. 04, 2013 Rise Set
Actual Time 7:21 AM CDT 7:00 PM CDT
Civil Twilight 6:55 AM CDT 7:26 PM CDT
Nautical Twilight 6:24 AM CDT 7:57 PM CDT
Astronomical Twilight 5:53 AM CDT 8:28 PM CDT
Moon 6:58 AM CDT (10/4) 6:43 PM CDT (10/4)
Length of Visible Light 12h 31m
Length of Day
11h 38m
Waning Crescent, 0% of the Moon is Illuminated
Oct 4
Waning Crescent
Oct 4
New
Oct 11
First Quarter
Oct 18
Full
Oct 26
Last Quarter

Hourly Weather History & Observations

Time (CDT) Temp. Heat Index Dew Point Humidity Pressure Visibility Wind Dir Wind Speed Gust Speed Precip Events Conditions
12:53 AM 73.9 °F - 66.0 °F 76% 29.75 in 10.0 mi South 15.0 mph 23.0 mph N/A   Clear
1:53 AM 73.0 °F - 66.0 °F 79% 29.74 in 10.0 mi South 16.1 mph 23.0 mph N/A   Clear
2:53 AM 73.0 °F - 66.0 °F 79% 29.73 in 10.0 mi South 17.3 mph - N/A   Clear
3:53 AM 73.0 °F - 66.9 °F 81% 29.72 in 10.0 mi South 15.0 mph 25.3 mph N/A   Partly Cloudy
4:53 AM 73.0 °F - 66.9 °F 81% 29.73 in 10.0 mi South 19.6 mph 27.6 mph N/A   Scattered Clouds
5:17 AM 73.4 °F - 66.2 °F 78% 29.77 in 10.0 mi South 13.8 mph 24.2 mph N/A   Mostly Cloudy
5:53 AM 73.0 °F - 66.9 °F 81% 29.74 in 10.0 mi South 12.7 mph - N/A   Mostly Cloudy
6:53 AM 73.0 °F - 66.9 °F 81% 29.73 in 10.0 mi South 15.0 mph 28.8 mph N/A   Partly Cloudy
7:25 AM 73.4 °F - 66.2 °F 78% 29.76 in 10.0 mi South 17.3 mph 24.2 mph N/A   Mostly Cloudy
7:42 AM 73.4 °F - 66.2 °F 78% 29.76 in 10.0 mi South 18.4 mph 27.6 mph N/A   Scattered Clouds
7:53 AM 73.9 °F - 66.9 °F 79% 29.73 in 10.0 mi South 20.7 mph 26.5 mph N/A   Partly Cloudy
8:53 AM 75.0 °F - 66.9 °F 76% 29.73 in 10.0 mi South 19.6 mph 32.2 mph N/A   Scattered Clouds
9:33 AM 75.2 °F - 68.0 °F 78% 29.76 in 10.0 mi South 18.4 mph 32.2 mph N/A   Mostly Cloudy
9:48 AM 75.2 °F - 66.2 °F 73% 29.77 in 10.0 mi South 23.0 mph 34.5 mph N/A   Scattered Clouds
9:53 AM 75.9 °F - 68.0 °F 76% 29.74 in 10.0 mi South 21.9 mph 34.5 mph N/A   Scattered Clouds
10:00 AM 77.0 °F - 68.0 °F 74% 29.77 in 10.0 mi South 20.7 mph 31.1 mph N/A   Mostly Cloudy
10:31 AM 78.8 °F - 68.0 °F 69% 29.76 in 10.0 mi South 21.9 mph 31.1 mph N/A   Scattered Clouds
10:53 AM 79.0 °F - 68.0 °F 69% 29.73 in 10.0 mi South 24.2 mph 34.5 mph N/A   Scattered Clouds
11:53 AM 80.1 °F 82.7 °F 68.0 °F 67% 29.73 in 10.0 mi South 18.4 mph 34.5 mph N/A   Partly Cloudy
12:53 PM 84.0 °F 86.5 °F 66.9 °F 56% 29.72 in 10.0 mi South 24.2 mph 34.5 mph N/A   Clear
1:53 PM 87.1 °F 89.2 °F 66.0 °F 49% 29.69 in 10.0 mi South 18.4 mph 29.9 mph N/A   Clear
2:53 PM 89.1 °F 90.3 °F 64.0 °F 43% 29.68 in 10.0 mi South 24.2 mph 38.0 mph N/A   Clear
3:53 PM 90.0 °F 90.6 °F 63.0 °F 40% 29.68 in 10.0 mi South 25.3 mph 34.5 mph N/A   Clear
4:53 PM 88.0 °F 88.7 °F 63.0 °F 43% 29.66 in 10.0 mi South 19.6 mph 28.8 mph N/A   Clear
5:53 PM 84.0 °F 84.9 °F 63.0 °F 49% 29.71 in 10.0 mi South 18.4 mph 24.2 mph N/A   Clear
6:53 PM 82.9 °F 84.0 °F 63.0 °F 51% 29.74 in 10.0 mi South 6.9 mph - N/A   Scattered Clouds
7:00 PM 82.4 °F 83.4 °F 62.6 °F 51% 29.77 in 10.0 mi SSE 8.1 mph - N/A Thunderstorm Mostly Cloudy
7:25 PM 71.6 °F - 62.6 °F 73% 29.81 in 8.0 mi West 24.2 mph 31.1 mph 0.02 in Rain , Thunderstorm Light Thunderstorms and Rain
7:38 PM 69.8 °F - 64.4 °F 83% 29.81 in 2.0 mi SSW 15.0 mph 23.0 mph 0.23 in Rain , Thunderstorm Heavy Thunderstorms and Rain
7:41 PM 69.8 °F - 64.4 °F 83% 29.82 in 3.0 mi South 19.6 mph 27.6 mph 0.23 in Rain , Thunderstorm Heavy Thunderstorms and Rain
7:53 PM 68.0 °F - 64.9 °F 90% 29.79 in 10.0 mi SSE 11.5 mph - 0.24 in Rain , Thunderstorm Light Thunderstorms and Rain
8:00 PM 69.8 °F - 64.4 °F 83% 29.81 in 10.0 mi South 9.2 mph - 0.00 in Rain , Thunderstorm Light Thunderstorms and Rain
8:53 PM 68.0 °F - 64.9 °F 90% 29.83 in 10.0 mi SW 9.2 mph - 0.05 in Rain , Thunderstorm Light Thunderstorms and Rain
9:23 PM 68.0 °F - 62.6 °F 83% 29.85 in 10.0 mi West 10.4 mph - 0.00 in   Partly Cloudy
9:53 PM 66.9 °F - 60.1 °F 79% 29.86 in 10.0 mi West 12.7 mph - 0.00 in   Overcast
10:53 PM 63.0 °F - 51.1 °F 65% 29.90 in 10.0 mi WNW 13.8 mph - N/A   Overcast
11:53 PM 60.1 °F - 43.0 °F 53% 29.94 in 10.0 mi WNW 16.1 mph 23.0 mph N/A   Overcast